[[{"header":{"parameterUnit":"m.s-1","parameterCategory":1,"la1":30.2992,"la2":30.254,"lo1":-89.0895,"lo2":-89.0443,"dy":0.0025,"dx":0.0025,"nx":19,"ny":19,"refTime":"2026-03-27T21:00:00:Z","depth":0,"parameterNumber":2,"parameterNumberName":"U-component_of_WINDS"},"data":[0,0,0,-6.9444,-6.9449,-6.9669,-6.967,-6.9969,-6.9972,0,0,0,0,0,0,0,0,0,0,0,-6.9394,-6.9397,-6.9444,-6.945,-6.9669,-6.967,-6.9969,-6.9972,0,0,0,0,0,0,0,0,0,0,0,-6.9393,-6.9396,-6.9399,-6.9451,-6.9669,-6.967,-6.9968,-6.9795,0,0,0,0,0,0,0,0,0,0,-6.9578,-6.9548,-6.9395,-6.9399,-6.9452,-6.9669,-6.967,-6.9786,-6.9806,-6.9879,0,-6.9951,0,-6.9967,-6.9994,-6.9995,0,0,0,-6.9438,-6.9532,-6.9577,-6.94,-6.9454,-6.9668,-6.9567,-6.9797,-6.9819,-6.9905,-6.9955,-6.9966,-6.9972,-6.9996,-6.9998,-7.0464,-7.0467,0,0,-6.9426,-6.9441,-6.9562,-6.9593,-6.9564,-6.956,-6.9574,-6.981,-6.9865,-6.9956,-6.9972,-6.9977,-6.9998,-7.0001,-7.0462,-7.0465,0,0,0,-6.9399,-6.9433,-6.9473,-6.9581,-6.9619,-6.9566,-6.9582,-6.9854,-6.9866,-6.9976,-6.998,-7.0,-7.0004,-7.0459,-7.0463,-7.0611,0,0,0,-6.9391,-6.9418,-6.9468,-6.948,-6.9615,-6.974,-6.9622,-6.9849,-6.9876,-6.9979,-7.0,-7.0007,-7.0456,-7.0461,-7.06,-7.0677,0,0,0,-6.9375,-6.9415,-6.9453,-6.948,-6.9575,-6.9736,-6.9761,-6.9855,-6.988,-6.9995,-7.0008,-7.0454,-7.046,-7.0591,-7.0661,-7.08,0,0,0,-6.9361,-6.9583,-6.9455,-6.9705,-6.9574,-6.9828,-6.9759,-6.9948,-7.0065,-7.0002,-7.0456,-7.0462,-7.0588,-7.0652,-7.0791,-7.0918,-7.0974,0,0,-6.9649,-6.9618,-6.9763,-6.9656,-6.9936,-6.9793,-7.0094,-7.0187,-7.0184,-7.037,-7.0381,-7.0604,-7.066,-7.0798,-7.1288,-7.1332,0,0,0,-6.9859,-6.9963,-7.0035,-7.0148,-7.0225,-7.0295,-7.034,-7.0373,-7.0531,-7.0284,-7.0693,-7.0727,-7.0807,-7.0866,-7.0904,-7.097,-7.0492,-7.0491,-7.0491,-7.0287,-7.0271,-7.0508,-7.0518,-7.0628,-7.0671,-7.0757,-7.0809,-7.0762,-7.0859,-7.0912,-7.1212,-7.1282,-7.131,-7.1379,-7.0982,-7.0983,-7.0983,-7.0984,-7.0704,-7.0846,-7.0776,-7.0981,-7.0961,-7.1132,-7.1181,-7.1141,-7.1294,-7.1171,-7.124,-7.1102,-7.136,-7.1418,-7.0995,-7.0993,-7.0991,-7.099,-7.0989,-7.0978,-7.1043,-7.1081,-7.124,-7.1364,-7.1366,-7.1516,-7.1493,-7.1473,-7.1543,-7.1593,-7.1591,-7.1581,-7.1569,-7.1571,-7.1572,-7.1572,-7.1573,-7.1574,-7.1246,-7.1284,-7.1414,-7.1513,-7.158,-7.1666,-7.171,-7.1775,-7.184,-7.1811,-7.1812,-7.175,-7.139,-7.1297,-7.159,-7.1587,-7.1585,-7.1583,-7.1582,-7.1666,-7.1567,-7.1768,-7.1836,-7.1947,-7.2068,-7.2039,-7.2172,-7.2222,-7.2296,-7.2221,-7.196,-7.1925,-7.1895,-7.1817,-7.2227,-7.2227,-7.2227,-7.2227,-7.1894,-7.1875,-7.2073,-7.2181,-7.2286,-7.2278,-7.2501,-7.2536,-7.2557,-7.2586,-7.2524,-7.2421,-7.2392,-7.2375,-7.2334,-7.2261,-7.2774,-7.2775,-7.2775,-7.2148,-7.2138,-7.2333,-7.2354,-7.2439,-7.2511,-7.2718,-7.2842,-7.2846,-7.2797,-7.2607,-7.2584,-7.2417,-7.2365,-7.2308,-7.2246,-7.2111,0,0]},{"header":{"parameterUnit":"m.s-1","parameterCategory":1,"la1":30.2992,"la2":30.254,"lo1":-89.0895,"lo2":-89.0443,"dy":0.0025,"dx":0.0025,"nx":19,"ny":19,"refTime":"2026-03-27T21:00:00:Z","depth":0,"parameterNumber":3,"parameterNumberName":"V-component_of_WINDS"},"data":[0,0,0,1.3497,1.3498,1.353,1.353,1.3573,1.3573,0,0,0,0,0,0,0,0,0,0,0,1.349,1.3491,1.3497,1.3498,1.3529,1.353,1.3573,1.3573,0,0,0,0,0,0,0,0,0,0,0,1.349,1.3491,1.3491,1.3498,1.3529,1.353,1.3572,1.3547,0,0,0,0,0,0,0,0,0,0,1.3516,1.3513,1.3491,1.3491,1.3498,1.3529,1.353,1.3546,1.3549,1.356,0,1.3571,0,1.3573,1.3576,1.3576,0,0,0,1.3496,1.351,1.3517,1.3491,1.3499,1.3529,1.3515,1.3548,1.3551,1.3564,1.3572,1.3573,1.3574,1.3577,1.3577,1.3649,1.3649,0,0,1.3494,1.3497,1.3515,1.3519,1.3515,1.3514,1.3516,1.355,1.3558,1.3572,1.3574,1.3574,1.3577,1.3577,1.3648,1.3649,0,0,0,1.3491,1.3496,1.3501,1.3517,1.3523,1.3515,1.3517,1.3557,1.3558,1.3574,1.3575,1.3577,1.3578,1.3648,1.3649,1.3673,0,0,0,1.3489,1.3494,1.3501,1.3503,1.3522,1.354,1.3523,1.3556,1.356,1.3575,1.3577,1.3578,1.3647,1.3648,1.3672,1.3684,0,0,0,1.3487,1.3494,1.3499,1.3503,1.3517,1.354,1.3543,1.3556,1.356,1.3576,1.3578,1.3647,1.3648,1.367,1.3681,1.3704,0,0,0,1.3486,1.352,1.35,1.3538,1.3517,1.3555,1.3543,1.3571,1.3588,1.3577,1.3648,1.3649,1.367,1.368,1.3702,1.3722,1.3731,0,0,1.3531,1.3526,1.3548,1.3531,1.3574,1.355,1.3597,1.3609,1.3607,1.3635,1.3637,1.3672,1.3681,1.3703,1.3782,1.3789,0,0,0,1.3563,1.358,1.359,1.3608,1.3619,1.3629,1.3634,1.3639,1.3662,1.3623,1.3687,1.3692,1.3705,1.3714,1.372,1.373,1.3653,1.3653,1.3653,1.363,1.3628,1.3664,1.3666,1.3682,1.3688,1.3701,1.3708,1.3699,1.3715,1.3722,1.3771,1.3782,1.3787,1.3797,1.3734,1.3734,1.3734,1.3734,1.3695,1.3717,1.3706,1.3738,1.3735,1.3761,1.3768,1.3761,1.3785,1.3765,1.3776,1.3753,1.3795,1.3804,1.3736,1.3736,1.3735,1.3735,1.3735,1.3738,1.3748,1.3754,1.3779,1.3798,1.3798,1.3822,1.3818,1.3814,1.3825,1.3832,1.3832,1.383,1.3829,1.3829,1.383,1.383,1.383,1.383,1.3779,1.3785,1.3806,1.3822,1.3832,1.3846,1.3853,1.3863,1.3873,1.3868,1.3868,1.3858,1.38,1.3785,1.3832,1.3832,1.3832,1.3831,1.3831,1.3843,1.3829,1.3861,1.3872,1.389,1.3909,1.3905,1.3926,1.3934,1.3945,1.3933,1.3892,1.3886,1.3881,1.3868,1.3934,1.3934,1.3934,1.3934,1.3878,1.3876,1.3908,1.3926,1.3943,1.3942,1.3978,1.3984,1.3987,1.3992,1.3982,1.3965,1.3961,1.3957,1.3951,1.3939,1.4022,1.4022,1.4022,1.3918,1.3917,1.3948,1.3952,1.3967,1.3979,1.4012,1.4032,1.4033,1.4025,1.3995,1.3991,1.3965,1.3956,1.3946,1.3936,1.3914,0,0]}]]